Showing default

OPS 8068, 1580

Orbit data source: Space-Track

OPS 8068, 1580 is a payload satellite owned by USAF SSD (US) in SSO that was launched on Fri, 10 Sep 1965 UTC via a THOR BURNER 1 launch vehicle from the Air Force Western Test Range (AFWTR). Payload-class satellites include a variety of spacecraft equipped with specific instruments for various scientific and technological missions. These include communications satellites like Starlink; space stations such as the ISS; scientific satellites like the Hubble; Earth observation satellites from companies like Planet Labs, Umbra, and HawkEye 360; GPS; miniature CubeSats for education and research; and military/defense satellites.

Loading next visibility...
Identifier
1580, 1965-072A
Orbit
SSO
Country
Flag of USUS
Related business
Manufacturer
RCA/East Windsor
Mission
Spacecraft
Bus & Motor
P35, Unknown motor
Mass
72 kg wet, 72 kg dry
Launch date (UTC)
1965-09-10 (60 years ago)
Launch vehicle
THOR BURNER 1
Launch site
Air Force Western Test Range (AFWTR)
Object type
Payload
Rocket body
Debris
Shape & HBR
Unknown
Radar Cross Section
Medium (>0.1 m² and <1 m²)

Expand to show TLE details & history
Last TLE update: 16 hours ago

TLE from 16 hours ago
0 OPS 8068
1 01580U 65072A   25350.35786639  .00000542  00000-0  17470-3 0  9999
2 01580  98.3935 147.9906 0228591 225.7175 132.5056 14.29495567106893
Epoch: 2025-12-16T08:35Z
TLE epoch observation values (Epoch: 2025-12-16T08:35:19.656Z)
Latitude
-0.00001°
Longitude
-66.08453°
Altitude
909.133 km
Speed
7.339 km/s
True Right ascension
09h 51m 57s
True Declination
0° 00' 00"
Sunlit
Object was in daylight at epoch
Visualization orbit readout
Latitude
Unknown
Longitude
Unknown
Altitude
Unknown
Speed
Unknown
Apparent Right ascension
Unknown
Apparent Declination
Unknown
Sunlit
N/A
Visualization observer readout
Local Sidereal Time
23:20:07
Azimuth
Unknown
Elevation
Unknown
Doppler factor
Unknown
Orbital elements
Apogee altitude
954.416 km
Perigee altitude
626.677 km
Semi-major axis
7,168.683 km
Eccentricity
0.02286
Inclination
98.3935°
RAAN
147.9906°
Arg. of periapsis
225.7175°
True anomaly
134.39975°
Mean anomaly
132.5056°
Eccentric anomaly
133.45633°
Mean motion
3.57589 °/min
Orbital period
100.67 mins
BSTAR
0.0001747
Loading maneuver chart data...
Computing Atmospheric mass density...
Loading historical data...
Loading historical data...
Loading historical data...
Loading historical data...
Loading historical data...
Loading historical data...
Loading historical data...

Documentation

Showing up to 5 results
|